Weather History for Petersburg, VA

Change the Weather History Date:

Friday, August 29, 2014

  Actual Average (KRIC) Record (KRIC)
Temperature  
Mean Temperature 75 °F 76 °F  
Max Temperature 83 °F 86 °F 101 °F (1953)
Min Temperature 67 °F 66 °F 47 °F (1986)
Degree Days  
Heating Degree Days 0 0  
Month to date heating degree days 0  
Since 1 June heating degree days 7  
Since 1 July heating degree days 0  
Cooling Degree Days 10 11  
Month to date cooling degree days 366  
Year to date cooling degree days 1285  
Since 1 June cooling degree days 1124  
Growing Degree Days 25 (Base 50)    
Moisture  
Dew Point 60 °F    
Average Humidity 61    
Maximum Humidity 78    
Minimum Humidity 43    
Precipitation  
Precipitation 0.00 in 0.14 in 2.88 in (2008)
Month to date precipitation 4.40  
Year to date precipitation 29.73  
Snow  
Snow 0.00 in 0.00 in 0.00 in (2002)
Month to date snowfall 0.0  
Since 1 July snowfall 0.0  
Snow Depth -    
Sea Level Pressure  
Sea Level Pressure 30.14 in    
Wind  
Wind Speed 4 mph (NE)    
Max Wind Speed 12 mph    
Max Gust Speed -    
Visibility 10 miles    
Events      
T = Trace of Precipitation, MM = Missing Value Source: NWS Daily Summary

Daily Weather History Graph

Daily Weather History Graph

Search for Another Location

Airport:

Trip Planner

Search our weather history database for the weather conditions in past years. The results will help you decide how hot, cold, wet, or windy it might be!

Date:

Astronomy

Aug. 29, 2014 Rise Set
Actual Time 6:38 AM EDT 7:43 PM EDT
Civil Twilight 6:11 AM EDT 8:09 PM EDT
Nautical Twilight 5:39 AM EDT 8:41 PM EDT
Astronomical Twilight 5:06 AM EDT 9:14 PM EDT
Moon 10:19 AM EDT (8/29) 9:46 PM EDT (8/29)
Length of Visible Light 13h 58m
Length of Day
13h 04m
Waxing Crescent, 15% of the Moon is Illuminated
Aug 29
Waxing Crescent
Sep 2
First Quarter
Sep 8
Full
Sep 15
Last Quarter
Sep 24
New

Hourly Weather History & Observations

Time (EDT) Temp. Heat Index Dew Point Humidity Pressure Visibility Wind Dir Wind Speed Gust Speed Precip Events Conditions
12:15 AM 72.7 °F - 64.2 °F 75% 30.08 in 10.0 mi Calm Calm - N/A   Overcast
12:35 AM 72.7 °F - 65.3 °F 78% 30.08 in 10.0 mi Calm Calm - N/A   Overcast
12:55 AM 72.3 °F - 64.9 °F 78% 30.08 in 10.0 mi Calm Calm - N/A   Overcast
1:15 AM 73.2 °F - 63.5 °F 71% 30.08 in 10.0 mi NNE 4.6 mph - N/A   Overcast
1:35 AM 74.3 °F - 62.4 °F 66% 30.08 in 10.0 mi NE 6.9 mph - N/A   Overcast
1:55 AM 74.3 °F - 62.2 °F 66% 30.09 in 10.0 mi NNE 4.6 mph - N/A   Overcast
2:15 AM 73.9 °F - 61.5 °F 65% 30.09 in 10.0 mi NNE 6.9 mph - N/A   Overcast
2:35 AM 73.2 °F - 59.2 °F 61% 30.09 in 10.0 mi NNE 6.9 mph - N/A   Overcast
2:55 AM 71.6 °F - 59.2 °F 65% 30.09 in 10.0 mi NE 6.9 mph - N/A   Mostly Cloudy
3:15 AM 70.3 °F - 59.2 °F 68% 30.10 in 10.0 mi NNE 5.8 mph - N/A   Mostly Cloudy
3:35 AM 70.2 °F - 58.6 °F 67% 30.09 in 10.0 mi NNE 8.1 mph - N/A   Scattered Clouds
3:55 AM 69.8 °F - 58.5 °F 67% 30.09 in 10.0 mi NNE 6.9 mph - N/A   Mostly Cloudy
4:15 AM 69.6 °F - 58.6 °F 68% 30.09 in 10.0 mi NNE 6.9 mph - N/A   Mostly Cloudy
4:35 AM 69.1 °F - 58.8 °F 70% 30.09 in 10.0 mi NNE 5.8 mph - N/A   Mostly Cloudy
4:55 AM 68.2 °F - 59.0 °F 72% 30.09 in 10.0 mi NNE 5.8 mph - N/A   Scattered Clouds
5:15 AM 67.5 °F - 59.0 °F 74% 30.10 in 10.0 mi NNE 4.6 mph - N/A   Scattered Clouds
5:35 AM 68.0 °F - 58.8 °F 72% 30.11 in 10.0 mi North 5.8 mph - N/A   Overcast
5:55 AM 68.9 °F - 58.5 °F 69% 30.11 in 10.0 mi NNE 5.8 mph - N/A   Overcast
6:15 AM 67.8 °F - 58.3 °F 71% 30.12 in 10.0 mi NNE 5.8 mph - N/A   Overcast
6:35 AM 67.1 °F - 58.3 °F 73% 30.13 in 10.0 mi NNE 5.8 mph - N/A   Mostly Cloudy
6:55 AM 67.1 °F - 58.1 °F 73% 30.14 in 10.0 mi NNE 4.6 mph - N/A   Scattered Clouds
7:15 AM 68.0 °F - 58.3 °F 71% 30.15 in 10.0 mi NNE 3.5 mph - N/A   Overcast
7:35 AM 68.4 °F - 58.3 °F 70% 30.15 in 10.0 mi NNE 4.6 mph - N/A   Overcast
7:55 AM 68.9 °F - 58.5 °F 69% 30.16 in 10.0 mi NNE 8.1 mph - N/A   Overcast
8:15 AM 69.3 °F - 59.0 °F 70% 30.16 in 10.0 mi North 6.9 mph - N/A   Mostly Cloudy
8:35 AM 70.7 °F - 58.6 °F 66% 30.16 in 10.0 mi NE 9.2 mph - N/A   Scattered Clouds
8:55 AM 71.2 °F - 58.1 °F 63% 30.17 in 10.0 mi NE 6.9 mph - N/A   Scattered Clouds
9:15 AM 72.5 °F - 58.1 °F 60% 30.17 in 10.0 mi NE 8.1 mph - N/A   Clear
9:35 AM 73.4 °F - 58.1 °F 59% 30.18 in 10.0 mi NNE 11.5 mph - N/A   Clear
9:55 AM 74.5 °F - 58.6 °F 58% 30.18 in 10.0 mi NE 8.1 mph - N/A   Scattered Clouds
10:15 AM 75.0 °F - 59.5 °F 58% 30.18 in 10.0 mi NNE 8.1 mph - N/A   Mostly Cloudy
10:35 AM 75.7 °F - 59.2 °F 56% 30.18 in 10.0 mi NE 8.1 mph - N/A   Mostly Cloudy
10:55 AM 75.6 °F - 59.4 °F 57% 30.18 in 10.0 mi NE 8.1 mph - N/A   Overcast
11:15 AM 76.6 °F - 59.7 °F 56% 30.18 in 10.0 mi NE 6.9 mph - N/A   Overcast
11:35 AM 77.4 °F - 59.7 °F 54% 30.18 in 10.0 mi NNE 9.2 mph - N/A   Scattered Clouds
11:55 AM 78.4 °F - 60.3 °F 53% 30.18 in 10.0 mi NE 6.9 mph - N/A   Clear
12:15 PM 79.3 °F - 59.7 °F 51% 30.17 in 10.0 mi NNE 6.9 mph - N/A   Clear
12:35 PM 79.0 °F - 59.0 °F 50% 30.17 in 10.0 mi North 5.8 mph - N/A   Clear
12:55 PM 80.2 °F 80.5 °F 57.4 °F 45% 30.17 in 10.0 mi ESE 6.9 mph - N/A   Clear
1:15 PM 80.8 °F 81.1 °F 58.1 °F 46% 30.17 in 10.0 mi East 3.5 mph - N/A   Clear
1:35 PM 80.8 °F 80.8 °F 56.3 °F 43% 30.17 in 10.0 mi Calm Calm - N/A   Clear
1:55 PM 81.1 °F 81.1 °F 56.7 °F 43% 30.16 in 10.0 mi Calm Calm - N/A   Clear
2:15 PM 81.5 °F 81.5 °F 57.6 °F 44% 30.16 in 10.0 mi ESE 3.5 mph - N/A   Clear
2:35 PM 82.4 °F 82.3 °F 58.6 °F 44% 30.15 in 10.0 mi East 4.6 mph - N/A   Scattered Clouds
2:55 PM 82.2 °F 82.3 °F 59.2 °F 45% 30.15 in 10.0 mi Calm Calm - N/A   Scattered Clouds
3:15 PM 81.9 °F 81.9 °F 58.5 °F 45% 30.14 in 10.0 mi Calm Calm - N/A   Scattered Clouds
3:35 PM 82.8 °F 83.0 °F 59.9 °F 46% 30.14 in 10.0 mi ENE 5.8 mph - N/A   Scattered Clouds
3:55 PM 82.4 °F 82.6 °F 59.9 °F 46% 30.13 in 10.0 mi Calm Calm - N/A   Scattered Clouds
4:15 PM 83.1 °F 83.3 °F 60.1 °F 46% 30.13 in 10.0 mi Calm Calm - N/A   Scattered Clouds
4:35 PM 82.4 °F 82.9 °F 61.0 °F 48% 30.13 in 10.0 mi ESE 3.5 mph - N/A   Mostly Cloudy
4:55 PM 82.6 °F 83.1 °F 61.0 °F 48% 30.13 in 10.0 mi ESE 3.5 mph - N/A   Overcast
5:15 PM 82.4 °F 83.2 °F 61.9 °F 50% 30.13 in 10.0 mi ESE 3.5 mph - N/A   Overcast
5:35 PM 82.4 °F 83.2 °F 62.2 °F 50% 30.13 in 10.0 mi ESE 5.8 mph - N/A   Mostly Cloudy
5:55 PM 80.1 °F 81.7 °F 63.9 °F 58% 30.13 in 10.0 mi Calm Calm - N/A   Scattered Clouds
6:15 PM 80.2 °F 81.8 °F 63.9 °F 57% 30.13 in 10.0 mi Calm Calm - N/A   Mostly Cloudy
6:35 PM 79.7 °F - 64.6 °F 60% 30.14 in 10.0 mi Calm Calm - N/A   Overcast
7:15 PM 77.9 °F - 64.6 °F 63% 30.14 in 10.0 mi ESE 5.8 mph - N/A   Overcast
7:35 PM 76.6 °F - 65.3 °F 68% 30.14 in 10.0 mi Calm Calm - N/A   Overcast
7:55 PM 76.1 °F - 65.5 °F 70% 30.15 in 10.0 mi SE 3.5 mph - N/A   Overcast
8:15 PM 75.9 °F - 64.9 °F 69% 30.15 in 10.0 mi ESE 4.6 mph - N/A   Overcast
8:35 PM 75.6 °F - 64.4 °F 68% 30.16 in 10.0 mi ESE 4.6 mph - N/A   Overcast
8:55 PM 75.2 °F - 64.4 °F 69% 30.17 in 10.0 mi ESE 3.5 mph - N/A   Overcast
9:15 PM 74.7 °F - 63.9 °F 69% 30.18 in 10.0 mi ESE 5.8 mph - N/A   Overcast
9:35 PM 74.3 °F - 63.7 °F 69% 30.19 in 10.0 mi East 4.6 mph - N/A   Overcast
9:55 PM 73.6 °F - 63.1 °F 70% 30.20 in 10.0 mi Calm Calm - N/A   Overcast
10:15 PM 73.6 °F - 61.2 °F 65% 30.20 in 10.0 mi ESE 5.8 mph - N/A   Overcast
10:35 PM 73.2 °F - 61.0 °F 65% 30.20 in 10.0 mi ESE 5.8 mph - N/A   Overcast
10:55 PM 72.7 °F - 60.8 °F 66% 30.20 in 10.0 mi ESE 4.6 mph - N/A   Overcast
11:15 PM 72.5 °F - 60.8 °F 67% 30.21 in 10.0 mi ESE 3.5 mph - N/A   Overcast
11:35 PM 72.5 °F - 60.4 °F 66% 30.21 in 10.0 mi ESE 3.5 mph - N/A   Overcast